{"data":{"norad_id":66591,"intl_designator":"2025-270D","name":"STARLINK-36058","alt_names":[],"object_type":"PAYLOAD","status":"ACTIVE","operator":null,"country":"US","launch_date":"2025-11-22","launch_site_code":"AFETR","launch_vehicle":null,"mission":null,"orbit_class":"UNKNOWN","rcs_meters":null,"size_class":null,"mass_kg":null,"dimensions":null,"purposes":["comms"],"wikipedia_slug":null,"has_3d_model":false,"image_url":null,"decayed_at":null,"tle_current":{"epoch":"2026-05-24T22:04:57.792576Z","epoch_age_seconds":75951,"freshness":"FRESH","line1":"1 66591U 25270D   26144.92011334  .00012504  00000+0  46292-3 0  9990","line2":"2 66591  43.0011 345.7328 0001203 275.4334  84.6380 15.27594241 29363","mean_motion":15.27594241,"eccentricity":0.0001203,"inclination_deg":43.0011,"raan_deg":345.7328,"arg_perigee_deg":275.4334,"mean_anomaly_deg":84.638,"bstar":0.00046292,"rev_number":2936,"period_min":94.265869911721,"perigee_km":482.18105813628,"apogee_km":483.83184925124,"semimajor_km":6861.1434536938,"source":"CELESTRAK","updated_at":"2026-05-25T13:38:21.287227Z"}}}